This is the latest recevied weather packets stored in our database for station/object G0TQM-11. If no packets are shown the sender has not sent any weather packets the latest 10 day(s).
| Time | Temp. | Humidity | Pressure | Rain* | Wind** | Luminosity | Snow |
|---|---|---|---|---|---|---|---|
| 1777890312 | 17.22° C | 49% | 1013.3 hPa | - | - | - | - |
| 1777889112 | 17.78° C | 48% | 1013.2 hPa | - | - | - | - |
| 1777887911 | 17.78° C | 47% | 1013.3 hPa | - | - | - | - |
| 1777886712 | 17.22° C | 48% | 1013.2 hPa | - | - | - | - |
| 1777885511 | 16.67° C | 50% | 1013.2 hPa | - | - | - | - |
| 1777884311 | 16.11° C | 51% | 1013 hPa | - | - | - | - |
| 1777883111 | 15° C | 52% | 1012.9 hPa | - | - | - | - |
| 1777881911 | 14.44° C | 53% | 1012.8 hPa | - | - | - | - |
| 1777880711 | 14.44° C | 50% | 1012.6 hPa | - | - | - | - |
| 1777879510 | 13.33° C | 49% | 1012.5 hPa | - | - | - | - |
| 1777878310 | 12.78° C | 50% | 1012.4 hPa | - | - | - | - |
| 1777877110 | 11.67° C | 52% | 1012.2 hPa | - | - | - | - |
| 1777875910 | 11.11° C | 52% | 1012.1 hPa | - | - | - | - |
| 1777874714 | 10.56° C | 54% | 1012 hPa | - | - | - | - |
| 1777873514 | 10° C | 55% | 1011.9 hPa | - | - | - | - |
| 1777872310 | 10° C | 55% | 1011.6 hPa | - | - | - | - |
| 1777871109 | 9.44° C | 55% | 1011.7 hPa | - | - | - | - |
| 1777869913 | 9.44° C | 55% | 1011.6 hPa | - | - | - | - |
| 1777868714 | 9.44° C | 56% | 1011.4 hPa | - | - | - | - |
| 1777867510 | 9.44° C | 55% | 1011.4 hPa | - | - | - | - |
| 1777866314 | 10° C | 54% | 1011.2 hPa | - | - | - | - |
| 1777865114 | 10° C | 54% | 1011.2 hPa | - | - | - | - |
| 1777863913 | 10° C | 55% | 1011.1 hPa | - | - | - | - |
| 1777862713 | 10° C | 55% | 1011.1 hPa | - | - | - | - |
| 1777861513 | 10° C | 55% | 1011 hPa | - | - | - | - |
* Rain since midnight (hover to see other rain measurements)
** Current wind speed in m/s (hover to see current wind gust speed)